�N����,����,����,����,����,�C��,���x,�~����,�S�V����,�ő�u�ԕ���,,,
,,,,,,,,,����,����,����,�N��
yyyy/mm/dd,hh:mm:ss,(16),16����,m/s,��,%,mm,KW/�u,(16),16����,m/s,Time
2014/11/1,1:00:00,13,���k��,1.5,3,97.3,0,0,13,���k��,2.5,51
2014/11/1,2:00:00,13,���k��,1.1,2.6,98.6,0,0,13,���k��,2.8,22
2014/11/1,3:00:00,12,��,2.1,2.8,99,0,0,12,��,2.5,56
2014/11/1,4:00:00,14,�k��,1.3,2.6,99.9,0,0,12,��,3.3,40
2014/11/1,5:00:00,12,��,2,0.9,100,0,0,12,��,2.6,55
2014/11/1,6:00:00,13,���k��,1.5,4.6,99.9,0,0,12,��,3.4,22
2014/11/1,7:00:00,13,���k��,2.5,6.8,89.8,0,0.06,15,�k�k��,4.2,17
2014/11/1,8:00:00,13,���k��,1.2,8.5,83.1,0,0.21,12,��,4,9
2014/11/1,9:00:00,12,��,1,11,72.1,0,0.37,13,���k��,2.8,25
2014/11/1,10:00:00,5,���쓌,2.5,12.2,75.7,0,0.46,3,���k��,4.8,41
2014/11/1,11:00:00,5,���쓌,2.5,11.8,75.4,0,0.44,4,��,4.6,31
2014/11/1,12:00:00,4,��,3,11.6,79.4,0,0.37,5,���쓌,4.3,59
2014/11/1,13:00:00,4,��,2.1,11.1,83.2,0,0.32,4,��,4.5,4
2014/11/1,14:00:00,4,��,1.9,10.9,85.6,0,0.19,4,��,3.6,32
2014/11/1,15:00:00,4,��,1.6,10.4,89.2,0,0.08,3,���k��,3.2,3
2014/11/1,16:00:00,2,�k��,1.1,10,90.4,0,0.03,4,��,2.4,16
2014/11/1,17:00:00,2,�k��,1.1,9.5,91.4,0,0.01,2,�k��,2.1,39
2014/11/1,18:00:00,15,�k�k��,1,9,94.9,0,0,2,�k��,2,3
2014/11/1,19:00:00,13,���k��,2.1,8.9,97.4,0.5,0,14,�k��,3.3,55
2014/11/1,20:00:00,14,�k��,1,8.9,98.5,1.5,0,14,�k��,3.2,1
2014/11/1,21:00:00,1,�k�k��,1,9.2,98.9,1.5,0,2,�k��,2.8,40
2014/11/1,22:00:00,13,���k��,1.2,9,99.1,2.5,0,13,���k��,2.5,35
2014/11/1,23:00:00,13,���k��,2.9,8.8,99.2,1,0,13,���k��,4.4,48
2014/11/1,0:00:00,13,���k��,2.7,8.8,99.1,0,0,13,���k��,4.7,53
2014/11/2,1:00:00,13,���k��,3.4,8.8,99.4,0.5,0,14,�k��,5.5,31
2014/11/2,2:00:00,13,���k��,3.1,8.7,98.9,0,0,13,���k��,5,58
2014/11/2,3:00:00,13,���k��,2.8,8.7,97.6,0,0,13,���k��,5.3,26
2014/11/2,4:00:00,14,�k��,2.3,8.8,96.1,0,0,14,�k��,5.8,31
2014/11/2,5:00:00,14,�k��,1,8.6,97,0,0,15,�k�k��,3.7,27
2014/11/2,6:00:00,13,���k��,0.8,8.6,97.4,0,0,14,�k��,2.3,0
2014/11/2,7:00:00,14,�k��,1.2,8.7,97.9,0,0.02,14,�k��,2.6,54
2014/11/2,8:00:00,16,�k,1.1,9.4,96.5,0,0.07,13,���k��,3.1,15
2014/11/2,9:00:00,13,���k��,0.9,9.4,96.9,0,0.07,7,��쓌,3.9,10
2014/11/2,10:00:00,14,�k��,1.7,10.3,96,0,0.11,15,�k�k��,2.8,21
2014/11/2,11:00:00,14,�k��,1.5,10.7,96.8,0,0.16,13,���k��,3.7,26
2014/11/2,12:00:00,13,���k��,2,11.4,96.5,0,0.2,14,�k��,3.2,32
2014/11/2,13:00:00,14,�k��,1.4,11.7,94.5,0,0.15,13,���k��,2.5,54
2014/11/2,14:00:00,15,�k�k��,1,11.7,94.5,0,0.09,13,���k��,2.1,31
2014/11/2,15:00:00,4,�É�,0,11.7,96.5,0,0.08,4,��,2.2,25
2014/11/2,16:00:00,8,��,0.9,11.4,98.7,0,0.03,5,���쓌,1.8,11
2014/11/2,17:00:00,6,�쓌,1.1,11,99.8,0,0,6,�쓌,2.2,41
2014/11/2,18:00:00,6,�쓌,0.8,10.9,100,0,0,6,�쓌,2,49
2014/11/2,19:00:00,5,���쓌,1.9,10.9,100,0,0,5,���쓌,2.7,56
2014/11/2,20:00:00,4,��,1.5,11,100,0,0,4,��,2.5,46
2014/11/2,21:00:00,13,���k��,1.1,11.1,100,1.5,0,13,���k��,2.6,59
2014/11/2,22:00:00,13,���k��,1.7,11,100,4,0,15,�k�k��,3,22
2014/11/2,23:00:00,5,���쓌,0.4,11.2,100,1,0,5,���쓌,2.2,54
2014/11/2,0:00:00,8,��,2.9,13.4,100,0.5,0,8,��,7.2,51
2014/11/3,1:00:00,8,��,6.4,14.3,100,0,0,8,��,14.4,40
2014/11/3,2:00:00,8,��,4.1,14,100,0.5,0,8,��,12.1,17
2014/11/3,3:00:00,11,���쐼,6,15.4,85,0.5,0,11,���쐼,11.5,58
2014/11/3,4:00:00,11,���쐼,10,15.3,57.5,0,0,11,���쐼,16,54
2014/11/3,5:00:00,10,�쐼,7,13,58.7,0,0,10,�쐼,19.6,1
2014/11/3,6:00:00,10,�쐼,6.3,12.6,58.1,0,0,11,���쐼,10.6,2
2014/11/3,7:00:00,11,���쐼,6.1,11.5,50.8,0,0.06,12,��,18.5,27
2014/11/3,8:00:00,10,�쐼,6.6,10.7,56,0,0.21,11,���쐼,14.8,32
2014/11/3,9:00:00,11,���쐼,7.6,10.6,49.7,0,0.21,11,���쐼,13.7,10
2014/11/3,10:00:00,11,���쐼,12.6,7.4,69.8,0,0.33,11,���쐼,22.2,50
2014/11/3,11:00:00,12,��,6.9,7.1,67,0,0.28,12,��,15.4,47
2014/11/3,12:00:00,10,�쐼,8,6.9,68.1,0,0.3,11,���쐼,16.2,27
2014/11/3,13:00:00,13,���k��,5.3,7.7,66.4,0,0.47,11,���쐼,17.2,43
2014/11/3,14:00:00,11,���쐼,4.6,6.6,69.8,0,0.17,11,���쐼,16.5,25
2014/11/3,15:00:00,10,�쐼,5.8,5.3,77.4,0,0.08,10,�쐼,10.7,0
2014/11/3,16:00:00,9,��쐼,3.8,5.4,76.2,0,0.03,10,�쐼,10.1,19
2014/11/3,17:00:00,14,�k��,2.5,4.8,77.9,0,0.01,11,���쐼,16.1,29
2014/11/3,18:00:00,8,��,1.2,4.4,81.5,0,0,1,�k�k��,4,11
2014/11/3,19:00:00,14,�k��,2.8,3.6,83.1,0,0,11,���쐼,9.1,17
2014/11/3,20:00:00,9,��쐼,2.7,5.1,67.2,0,0,11,���쐼,9.6,19
2014/11/3,21:00:00,11,���쐼,7.9,4.3,71.9,0,0,10,�쐼,14.9,49
2014/11/3,22:00:00,10,�쐼,6,5.6,52.8,0,0,11,���쐼,11.3,59
2014/11/3,23:00:00,11,���쐼,5.8,3,79.3,0,0,12,��,12,9
2014/11/3,0:00:00,11,���쐼,8.3,2.9,79.4,0,0,11,���쐼,14,44
2014/11/4,1:00:00,9,��쐼,3.2,1.8,90.1,0,0,9,��쐼,12,13
2014/11/4,2:00:00,10,�쐼,6.8,3.3,73,0,0,10,�쐼,11.3,56
2014/11/4,3:00:00,10,�쐼,4.3,2.9,75.5,0,0,10,�쐼,14.2,4
2014/11/4,4:00:00,11,���쐼,7.4,5.1,49.5,0,0,12,��,15,53
2014/11/4,5:00:00,12,��,8.3,5.2,47.6,0,0,12,��,16,7
2014/11/4,6:00:00,12,��,7.7,5.4,46.8,0,0,12,��,14.6,14
2014/11/4,7:00:00,13,���k��,4.4,4.4,59.6,0,0.03,12,��,17.4,24
2014/11/4,8:00:00,12,��,7.4,6.1,42.6,0,0.21,10,�쐼,12.6,41
2014/11/4,9:00:00,12,��,8.2,7.6,40.1,0,0.4,13,���k��,18.9,32
2014/11/4,10:00:00,12,��,10.1,8,36.1,0,0.55,13,���k��,18.9,16
2014/11/4,11:00:00,12,��,8.9,8.8,38.3,0,0.63,13,���k��,17.8,29
2014/11/4,12:00:00,12,��,9.8,8.9,34.8,0,0.63,11,���쐼,17.7,28
2014/11/4,13:00:00,12,��,11.2,9.3,31.5,0,0.58,13,���k��,18.6,13
2014/11/4,14:00:00,12,��,10.3,9.4,33.8,0,0.48,12,��,19.1,28
2014/11/4,15:00:00,12,��,6.6,9.1,34.6,0,0.31,12,��,14.8,1
2014/11/4,16:00:00,12,��,5.6,8.2,38.4,0,0.12,12,��,12.4,12
2014/11/4,17:00:00,11,���쐼,5,7.6,40.3,0,0.01,12,��,10.4,23
2014/11/4,18:00:00,12,��,2.1,4.4,50.5,0,0,12,��,7.6,12
2014/11/4,19:00:00,12,��,4.8,6.7,45.4,0,0,11,���쐼,7.3,56
2014/11/4,20:00:00,12,��,6.2,7.1,49.7,0,0,11,���쐼,9.7,53
2014/11/4,21:00:00,11,���쐼,3.7,7.2,51,0,0,12,��,7.5,10
2014/11/4,22:00:00,11,���쐼,8.1,8.6,50.2,0,0,11,���쐼,12.4,51
2014/11/4,23:00:00,12,��,6.9,9.1,51.6,0,0,11,���쐼,12.6,6
2014/11/4,0:00:00,4,��,1.4,5.4,62.2,0,0,12,��,10.5,2
2014/11/5,1:00:00,12,��,1,3.4,70.4,0,0,11,���쐼,3.7,21
2014/11/5,2:00:00,11,���쐼,1.1,1.1,84,0,0,12,��,4.1,56
2014/11/5,3:00:00,12,��,2.8,0.4,85.3,0,0,12,��,5.7,58
2014/11/5,4:00:00,12,��,3.6,-0.4,88.3,0,0,12,��,4.5,59
2014/11/5,5:00:00,13,���k��,1.3,-0.7,89.8,0,0,12,��,4.1,0
2014/11/5,6:00:00,13,���k��,3,-0.2,88.9,0,0,12,��,4.4,52
2014/11/5,7:00:00,12,��,2.5,0.7,88.1,0,0.06,12,��,3.8,15
2014/11/5,8:00:00,12,��,2.3,4.7,72.8,0,0.24,13,���k��,3.4,28
2014/11/5,9:00:00,12,��,1.7,10.4,57,0,0.42,12,��,3,26
2014/11/5,10:00:00,10,�쐼,1.6,12.9,46.5,0,0.55,10,�쐼,3,55
2014/11/5,11:00:00,6,�쓌,3.5,12.3,47.3,0,0.61,6,�쓌,6.4,54
2014/11/5,12:00:00,7,��쓌,4.1,11.9,62.9,0,0.62,7,��쓌,6.4,57
2014/11/5,13:00:00,7,��쓌,3.9,12.1,57.3,0,0.57,7,��쓌,7.4,28
2014/11/5,14:00:00,6,�쓌,3.1,12.2,66.5,0,0.46,6,�쓌,5.9,40
2014/11/5,15:00:00,6,�쓌,2.4,11.9,66.6,0,0.3,6,�쓌,5.9,15
2014/11/5,16:00:00,7,��쓌,0.3,9.3,83.2,0,0.12,5,���쓌,3.8,12
2014/11/5,17:00:00,10,�쐼,2,8.4,76.5,0,0.01,11,���쐼,3.2,59
2014/11/5,18:00:00,11,���쐼,2.7,8.6,62,0,0,11,���쐼,4.7,44
2014/11/5,19:00:00,9,��쐼,2.3,8.6,61.2,0,0,9,��쐼,3.8,24
2014/11/5,20:00:00,10,�쐼,1.1,3.2,83.7,0,0,10,�쐼,3.4,6
2014/11/5,21:00:00,12,��,2.1,1.4,90.3,0,0,12,��,2.7,57
2014/11/5,22:00:00,11,���쐼,1.1,-0.3,94.3,0,0,12,��,3.6,14
2014/11/5,23:00:00,15,�k�k��,0.6,0.1,93.6,0,0,11,���쐼,3.5,39
2014/11/5,0:00:00,10,�쐼,3.9,4.2,96.3,0,0,10,�쐼,5.3,55
2014/11/6,1:00:00,11,���쐼,2.1,1,94.8,0,0,9,��쐼,5.8,0
2014/11/6,2:00:00,11,���쐼,2.3,0.7,97.1,0,0,10,�쐼,3.8,46
2014/11/6,3:00:00,11,���쐼,3.2,-0.1,97,0,0,10,�쐼,4.8,50
2014/11/6,4:00:00,12,��,0.7,0.7,95.4,0,0,12,��,4.7,34
2014/11/6,5:00:00,13,���k��,0.9,0.6,93.7,0,0,10,�쐼,3.3,20
2014/11/6,6:00:00,11,���쐼,1.9,1,93.6,0,0,6,�쓌,4,52
2014/11/6,7:00:00,13,���k��,2.1,2.6,87.1,0,0.06,13,���k��,3.5,16
2014/11/6,8:00:00,13,���k��,2.1,6.3,73.6,0,0.23,13,���k��,3.4,20
2014/11/6,9:00:00,12,��,0.6,9.8,70.3,0,0.41,12,��,3,27
2014/11/6,10:00:00,5,���쓌,1.2,11.9,74.1,0,0.54,5,���쓌,3,36
2014/11/6,11:00:00,5,���쓌,2.6,12.8,72.6,0,0.6,4,��,4.2,56
2014/11/6,12:00:00,5,���쓌,2.3,11.5,80.3,0,0.48,5,���쓌,4.8,21
2014/11/6,13:00:00,4,��,1.3,13.1,75.2,0,0.49,5,���쓌,2.8,21
2014/11/6,14:00:00,3,���k��,1.9,13.8,72.6,0,0.5,6,�쓌,4.6,8
2014/11/6,15:00:00,14,�É�,0.2,14.5,65.3,0,0.35,1,�k�k��,3.1,4
2014/11/6,16:00:00,14,�k��,0.3,11.5,81,0,0.12,7,��쓌,3.9,32
2014/11/6,17:00:00,10,�쐼,2.1,12.2,63.9,0,0,9,��쐼,3.7,33
2014/11/6,18:00:00,10,�쐼,3.1,12.9,57,0,0,9,��쐼,5.6,57
2014/11/6,19:00:00,9,��쐼,2,12.5,55.9,0,0,9,��쐼,7,25
2014/11/6,20:00:00,9,��쐼,2.6,12.6,60.5,0,0,9,��쐼,5.1,31
2014/11/6,21:00:00,8,��,1.3,11.2,71.1,0,0,8,��,4.2,0
2014/11/6,22:00:00,12,��,1.4,9,76.2,0,0,10,�쐼,4,45
2014/11/6,23:00:00,9,��쐼,1.9,11.2,68,0,0,9,��쐼,3.9,34
2014/11/6,0:00:00,12,��,1.5,8.7,83.5,0,0,9,��쐼,4,10
2014/11/7,1:00:00,14,�k��,5,10.2,75,0,0,13,���k��,8.8,50
2014/11/7,2:00:00,14,�k��,5.8,8.8,70.7,0,0,14,�k��,10.9,31
2014/11/7,3:00:00,14,�k��,4.4,7.8,68.5,0,0,13,���k��,10.8,36
2014/11/7,4:00:00,14,�k��,5.1,7.3,62.2,0,0,14,�k��,10.9,53
2014/11/7,5:00:00,14,�k��,5.4,6.6,57.7,0,0,15,�k�k��,11.5,21
2014/11/7,6:00:00,14,�k��,5.1,5.6,56.3,0,0,14,�k��,11,54
2014/11/7,7:00:00,14,�k��,4.6,5.2,58.1,0,0.06,14,�k��,8.7,52
2014/11/7,8:00:00,15,�k�k��,4.7,6.3,53.6,0,0.24,15,�k�k��,10.4,7
2014/11/7,9:00:00,14,�k��,4.2,7.1,47.8,0,0.41,13,���k��,8.5,44
2014/11/7,10:00:00,15,�k�k��,4.8,8,46.6,0,0.54,14,�k��,10.8,56
2014/11/7,11:00:00,15,�k�k��,6.2,7.8,50.6,0,0.6,7,��쓌,11.5,32
2014/11/7,12:00:00,14,�k��,6,7.5,44.6,0,0.61,14,�k��,12,51
2014/11/7,13:00:00,14,�k��,4.9,7.2,40.8,0,0.57,16,�k,10.8,35
2014/11/7,14:00:00,15,�k�k��,3.9,7.2,36.8,0,0.46,14,�k��,9.5,8
2014/11/7,15:00:00,15,�k�k��,2.5,6,44.2,0,0.29,1,�k�k��,8.2,32
2014/11/7,16:00:00,15,�k�k��,2.7,4.3,47.3,0,0.11,1,�k�k��,8.7,16
2014/11/7,17:00:00,12,��,2.4,2.3,58.9,0,0.01,14,�k��,5.4,23
2014/11/7,18:00:00,14,�k��,1.6,0.9,64.4,0,0,14,�k��,5.1,3
2014/11/7,19:00:00,12,��,1.4,-3.2,87.6,0,0,11,���쐼,2.6,11
2014/11/7,20:00:00,12,��,1.3,-3.6,89.1,0,0,12,��,2.2,28
2014/11/7,21:00:00,12,��,1.9,-3.5,87.6,0,0,11,���쐼,2.5,59
2014/11/7,22:00:00,12,��,1.9,-4,90.3,0,0,12,��,2.9,34
2014/11/7,23:00:00,12,��,1.9,-4.2,89.2,0,0,12,��,3.2,38
2014/11/7,0:00:00,12,��,2.3,-4.4,91.5,0,0,12,��,3.3,42
2014/11/8,1:00:00,13,���k��,1.3,-5.6,91.9,0,0,12,��,3.3,44
2014/11/8,2:00:00,13,���k��,2.3,-5,89.8,0,0,12,��,3.8,48
2014/11/8,3:00:00,12,��,1.7,-5,92.2,0,0,11,���쐼,3.4,2
2014/11/8,4:00:00,12,��,2.1,-5.2,92.3,0,0,12,��,2.9,57
2014/11/8,5:00:00,12,��,2.5,-5.1,92.4,0,0,12,��,3.2,58
2014/11/8,6:00:00,12,��,2.1,-4.9,91.6,0,0,12,��,3.7,43
2014/11/8,7:00:00,15,�k�k��,0.5,-2.6,85.4,0,0.06,12,��,3.8,33
2014/11/8,8:00:00,13,���k��,1.9,1.5,71.3,0,0.23,12,��,3.2,11
2014/11/8,9:00:00,14,�k��,0.6,6.3,64.4,0,0.4,12,��,3.2,1
2014/11/8,10:00:00,2,�k��,1.5,10.6,47.4,0,0.53,2,�k��,3.2,34
2014/11/8,11:00:00,5,���쓌,2.5,10.1,41.8,0,0.59,5,���쓌,4.9,58
2014/11/8,12:00:00,6,�쓌,2.7,9.9,37.5,0,0.6,6,�쓌,5.6,27
2014/11/8,13:00:00,6,�쓌,3.5,9.8,48.5,0,0.55,6,�쓌,5.3,8
2014/11/8,14:00:00,7,��쓌,1.7,9.8,45.4,0,0.44,5,���쓌,5.1,4
2014/11/8,15:00:00,7,��쓌,1.6,9.6,53.7,0,0.29,6,�쓌,4.2,6
2014/11/8,16:00:00,8,�É�,0.2,7.2,66.8,0,0.1,9,��쐼,3,28
2014/11/8,17:00:00,7,�É�,0.2,4.2,77.2,0,0,8,��,1.7,41
2014/11/8,18:00:00,12,��,3,7.3,64.4,0,0,11,���쐼,6.4,30
2014/11/8,19:00:00,12,��,2.7,7.1,66.8,0,0,11,���쐼,5,48
2014/11/8,20:00:00,15,�k�k��,0.5,2.8,82.3,0,0,15,�k�k��,23.7,51
2014/11/8,21:00:00,14,�k��,1.5,4.1,74.3,0,0,14,�k��,3.1,53
2014/11/8,22:00:00,12,��,1.2,1.2,89.2,0,0,9,��쐼,7.9,13
2014/11/8,23:00:00,12,��,2.5,1.6,88.8,0,0,11,���쐼,4.1,59
2014/11/8,0:00:00,15,�k�k��,0.9,0.3,88.5,0,0,12,��,4,17
2014/11/9,1:00:00,12,��,1.3,-1,94.3,0,0,15,�k�k��,2.4,6
2014/11/9,2:00:00,12,��,1.3,-0.2,94.7,0,0,12,��,3.4,37
2014/11/9,3:00:00,13,���k��,2.7,-1.2,93.8,0,0,12,��,3.8,39
2014/11/9,4:00:00,13,���k��,2.4,0.4,89.3,0,0,14,�k��,4.4,36
2014/11/9,5:00:00,13,���k��,1.4,-1.5,90.7,0,0,12,��,5.3,18
2014/11/9,6:00:00,14,�k��,1.6,-0.6,89.6,0,0,13,���k��,3.7,34
2014/11/9,7:00:00,12,��,2.1,0.6,88,0,0.05,14,�k��,3.6,26
2014/11/9,8:00:00,12,��,1.6,4.1,77.2,0,0.2,13,���k��,3.8,8
2014/11/9,9:00:00,13,���k��,1.4,8.7,65.6,0,0.33,14,�k��,3.4,36
2014/11/9,10:00:00,3,���k��,1.6,11.8,53.4,0,0.38,4,��,2.5,50
2014/11/9,11:00:00,6,�쓌,1.9,11.4,54.2,0,0.39,6,�쓌,3.8,38
2014/11/9,12:00:00,7,��쓌,2.2,11.2,59.5,0,0.26,6,�쓌,3.6,11
2014/11/9,13:00:00,7,��쓌,0.8,10.5,59.5,0,0.18,8,��,2.7,43
2014/11/9,14:00:00,10,�쐼,1.8,11.2,53.2,0,0.2,9,��쐼,4.2,34
2014/11/9,15:00:00,10,�쐼,2,10.9,56.1,0,0.12,9,��쐼,3.3,56
2014/11/9,16:00:00,10,�쐼,0.8,7.7,75.3,0,0.03,10,�쐼,1.8,8
2014/11/9,17:00:00,12,��,1.4,6.9,76.3,0,0,12,��,2,47
2014/11/9,18:00:00,10,�쐼,1,6.1,79,0,0,12,��,2.5,46
2014/11/9,19:00:00,13,���k��,0.5,6.6,80.4,0,0,11,���쐼,2.2,57
2014/11/9,20:00:00,12,��,1.1,6.2,86.2,0,0,10,�쐼,7.6,13
2014/11/9,21:00:00,9,��쐼,1.4,6.1,84.8,0,0,2,�k��,2.3,26
2014/11/9,22:00:00,13,���k��,1.4,6.2,88.1,0,0,12,��,2.5,18
2014/11/9,23:00:00,11,���쐼,1.1,6.5,84.5,0,0,14,�k��,2.8,0
2014/11/9,0:00:00,14,�k��,0.6,6.2,89.8,0,0,11,���쐼,2.5,5
2014/11/10,1:00:00,15,�k�k��,1.5,6.3,90.3,0,0,13,���k��,2.8,44
2014/11/10,2:00:00,10,�쐼,1.1,5.9,97.4,0.5,0,1,�k�k��,2.7,41
2014/11/10,3:00:00,13,���k��,2.3,6,97,1.5,0,14,�k��,3.3,32
2014/11/10,4:00:00,14,�k��,2.4,6.5,94.7,4.5,0,14,�k��,5.6,38
2014/11/10,5:00:00,14,�k��,0.5,6.3,96.5,3.5,0,14,�k��,4.8,15
2014/11/10,6:00:00,16,�k,0.6,6.2,97.6,1,0,13,���k��,3.4,5
2014/11/10,7:00:00,15,�k�k��,0.5,6.5,97.2,0.5,0.01,11,���쐼,3.7,33
2014/11/10,8:00:00,1,�k�k��,1.3,7.7,95.3,0,0.1,1,�k�k��,7,31
2014/11/10,9:00:00,13,���k��,2.5,8.1,92.2,0,0.17,14,�k��,4.1,59
2014/11/10,10:00:00,14,�k��,2.3,8.3,93.2,0,0.12,13,���k��,4.8,22
2014/11/10,11:00:00,3,���k��,2,10.4,88.4,0.5,0.27,2,�k��,3.9,9
2014/11/10,12:00:00,3,���k��,1.6,9.4,91.2,0,0.13,3,���k��,3.5,3
2014/11/10,13:00:00,2,�k��,2,9.1,94.3,0,0.09,3,���k��,4,35
2014/11/10,14:00:00,14,�k��,2.7,8.6,96,0.5,0.03,14,�k��,4.8,56
2014/11/10,15:00:00,13,���k��,3.5,9,92,0.5,0.1,13,���k��,6.2,37
2014/11/10,16:00:00,13,���k��,2.3,8.1,90.6,0,0.08,13,���k��,5.4,6
2014/11/10,17:00:00,4,��,0.8,5.6,96.7,0,0.01,2,�k��,3.5,24
2014/11/10,18:00:00,11,���쐼,1.7,6,99.3,0,0,11,���쐼,2.5,59
2014/11/10,19:00:00,12,��,2.3,5.2,99.5,0,0,12,��,3,58
2014/11/10,20:00:00,13,���k��,1.3,3.5,99.2,0,0,13,���k��,3.6,35
2014/11/10,21:00:00,12,��,2.4,2.8,100,0,0,14,�k��,3.5,12
2014/11/10,22:00:00,13,���k��,1.9,2.9,99.9,0,0,13,���k��,3.7,50
2014/11/10,23:00:00,13,���k��,2.2,2.9,100,0,0,13,���k��,4.4,14
2014/11/10,0:00:00,13,���k��,2.2,2.6,100,0,0,13,���k��,3.6,46
2014/11/11,1:00:00,13,���k��,2.1,1.4,100,0,0,13,���k��,3,20
2014/11/11,2:00:00,12,��,1.2,0.9,100,0,0,14,�k��,4,27
2014/11/11,3:00:00,13,���k��,1.8,1.1,100,0,0,12,��,3.8,4
2014/11/11,4:00:00,12,��,2.5,0.5,100,0,0,12,��,3.2,54
2014/11/11,5:00:00,14,�k��,2.1,0.6,100,0,0,13,���k��,3.4,25
2014/11/11,6:00:00,12,��,1.8,-0.1,100,0,0,12,��,2.8,48
2014/11/11,7:00:00,12,��,1.6,0.8,100,0,0.04,12,��,2.8,15
2014/11/11,8:00:00,13,���k��,0.6,3.7,99.5,0,0.2,12,��,2.5,0
2014/11/11,9:00:00,7,�É�,0.1,7.5,86.7,0,0.37,12,��,1.8,8
2014/11/11,10:00:00,5,���쓌,2.1,9.3,84.8,0,0.5,5,���쓌,2.9,57
2014/11/11,11:00:00,5,���쓌,3.5,9.6,86.1,0,0.56,5,���쓌,4.4,53
2014/11/11,12:00:00,4,��,3.3,9,88.4,0,0.51,5,���쓌,5.1,33
2014/11/11,13:00:00,4,��,2.9,9.1,89.6,0,0.23,5,���쓌,5.2,1
2014/11/11,14:00:00,5,���쓌,2.5,9.3,91.3,0,0.14,4,��,4.2,6
2014/11/11,15:00:00,7,��쓌,1.9,9.6,91.2,0,0.09,5,���쓌,4.2,24
2014/11/11,16:00:00,7,��쓌,1.9,9.4,91.1,0,0.02,8,��,4.9,35
2014/11/11,17:00:00,8,��,1.6,9.4,92.1,0,0,7,��쓌,3.4,38
2014/11/11,18:00:00,7,��쓌,3.2,9.6,91.5,0,0,7,��쓌,5.2,58
2014/11/11,19:00:00,7,��쓌,2.1,9.4,93.4,0,0,7,��쓌,5.4,31
2014/11/11,20:00:00,8,��,1.1,8.4,94.1,0,0,8,��,4.7,27
2014/11/11,21:00:00,14,�k��,1,4.9,99.4,0,0,14,�k��,2.5,42
2014/11/11,22:00:00,11,�É�,0.2,2.7,100,0,0,1,�k�k��,2.6,34
2014/11/11,23:00:00,12,��,1.1,1.9,100,0,0,13,���k��,2.1,15
2014/11/11,0:00:00,13,���k��,2.4,2.8,100,0,0,12,��,3.7,52
2014/11/12,1:00:00,14,�k��,2.2,3.8,100,0,0,14,�k��,3.9,4
2014/11/12,2:00:00,13,���k��,1.7,1.8,100,0,0,13,���k��,3.5,28
2014/11/12,3:00:00,14,�k��,1.7,3.7,100,0,0,14,�k��,3.8,59
2014/11/12,4:00:00,13,���k��,1.3,3.2,100,0,0,15,�k�k��,4.1,3
2014/11/12,5:00:00,13,���k��,1.3,4.2,100,0,0,7,��쓌,3.5,40
2014/11/12,6:00:00,13,���k��,2.1,4.5,100,0,0,14,�k��,4,32
2014/11/12,7:00:00,13,���k��,1.5,4.9,100,0,0.02,13,���k��,2.5,58
2014/11/12,8:00:00,14,�k��,1.7,5.6,100,0,0.06,14,�k��,2.9,53
2014/11/12,9:00:00,15,�k�k��,1.5,6.2,100,0,0.11,14,�k��,3,12
2014/11/12,10:00:00,14,�k��,0.7,6.8,97.3,0,0.1,14,�k��,2.5,6
2014/11/12,11:00:00,2,�k��,1.5,7.6,96.1,0,0.16,2,�k��,2.4,55
2014/11/12,12:00:00,6,�쓌,1.2,7.9,95.8,0,0.1,4,��,2.3,25
2014/11/12,13:00:00,5,���쓌,1,8.1,96.7,0,0.1,6,�쓌,2.6,11
2014/11/12,14:00:00,7,��쓌,1.3,8.6,94.4,0,0.2,5,���쓌,3.4,35
2014/11/12,15:00:00,5,���쓌,2.2,8.4,96.1,0,0.07,4,��,3.1,59
2014/11/12,16:00:00,5,�É�,0,7.9,96.7,0,0.03,3,���k��,2.7,7
2014/11/12,17:00:00,3,�É�,0.1,7.6,98.4,0,0,2,�k��,2.7,32
2014/11/12,18:00:00,6,�쓌,2.5,9.1,91.8,0,0,6,�쓌,4.2,59
2014/11/12,19:00:00,6,�쓌,2.7,8.8,95.3,0,0,6,�쓌,4.7,58
2014/11/12,20:00:00,5,���쓌,1.4,8.8,98.8,0,0,5,���쓌,4.2,12
2014/11/12,21:00:00,7,��쓌,3,9.5,99.8,0,0,8,��,6.3,58
2014/11/12,22:00:00,8,��,4,10.3,99,0.5,0,8,��,10.6,34
2014/11/12,23:00:00,14,�k��,0.5,7.8,97.3,10,0,12,��,7.7,6
2014/11/12,0:00:00,11,���쐼,1.2,7.6,99.4,0,0,14,�k��,2.8,43
2014/11/13,1:00:00,12,��,0.9,6.6,99.7,0,0,8,��,2.6,9
2014/11/13,2:00:00,12,��,1.4,6.6,100,0,0,13,���k��,3.1,40
2014/11/13,3:00:00,15,�k�k��,0.4,5.1,100,0,0,14,�k��,4.1,8
2014/11/13,4:00:00,15,�k�k��,2.5,6.2,100,0,0,13,���k��,9.7,37
2014/11/13,5:00:00,12,��,1.3,6,98.6,0,0,14,�k��,4.3,9
2014/11/13,6:00:00,12,��,1.3,4.4,98.3,0.5,0,10,�쐼,3.3,22
2014/11/13,7:00:00,13,���k��,2.1,5,100,0,0.03,13,���k��,3.2,52
2014/11/13,8:00:00,7,��쓌,1.9,7.3,95.6,0,0.17,7,��쓌,2.4,52
2014/11/13,9:00:00,10,�쐼,5.1,10.4,57.1,0,0.3,10,�쐼,8.2,49
2014/11/13,10:00:00,10,�쐼,4.3,8.5,76.5,0,0.24,10,�쐼,9.7,33
2014/11/13,11:00:00,11,���쐼,3.4,7.3,86.2,0,0.12,11,���쐼,9.1,39
2014/11/13,12:00:00,11,���쐼,5.1,7,82.2,0,0.18,10,�쐼,7.7,51
2014/11/13,13:00:00,12,��,8.5,6.6,67.4,0,0.37,12,��,14.1,38
2014/11/13,14:00:00,12,��,4.4,6.1,56.8,0,0.21,12,��,11.9,1
2014/11/13,15:00:00,11,���쐼,5.9,5.1,61.9,0,0.06,13,���k��,13.8,50
2014/11/13,16:00:00,11,���쐼,8.8,5.6,42.7,0,0.02,11,���쐼,15,54
2014/11/13,17:00:00,11,���쐼,8.5,5.3,39.8,0,0,11,���쐼,19.3,24
2014/11/13,18:00:00,11,���쐼,12.4,3.5,51,0,0,11,���쐼,20.8,55
2014/11/13,19:00:00,13,���k��,1.6,1.2,78.2,0,0,12,��,18.2,0
2014/11/13,20:00:00,11,���쐼,9.3,3.2,57,0,0,10,�쐼,17.8,39
2014/11/13,21:00:00,11,���쐼,2.8,0.6,91.4,0,0,10,�쐼,20.8,28
2014/11/13,22:00:00,10,�쐼,2.5,0.4,95.8,0,0,11,���쐼,13.1,10
2014/11/13,23:00:00,8,��,1.8,0.7,94.3,0,0,9,��쐼,6.3,25
2014/11/13,0:00:00,9,��쐼,4.6,0.9,94.1,0,0,9,��쐼,8.2,37
2014/11/14,1:00:00,6,�쓌,1.7,1.9,78.8,0,0,9,��쐼,7.4,1
2014/11/14,2:00:00,11,���쐼,4.7,1.7,81.6,0,0,10,�쐼,9,31
2014/11/14,3:00:00,11,���쐼,2.8,1.1,87,0,0,11,���쐼,6.8,20
2014/11/14,4:00:00,13,���k��,1.9,0.9,86.9,0,0,11,���쐼,5.8,37
2014/11/14,5:00:00,10,�쐼,1,0.9,81.8,0,0,13,���k��,5.7,39
2014/11/14,6:00:00,5,���쓌,2.5,0.9,82,0,0,5,���쓌,4,56
2014/11/14,7:00:00,12,��,0.6,-0.2,79.8,0,0.02,5,���쓌,4.6,6
2014/11/14,8:00:00,6,�쓌,1.1,2,70.8,0,0.2,15,�k�k��,6.9,8
2014/11/14,9:00:00,12,��,5.9,3.6,55.9,0,0.39,11,���쐼,10.9,55
2014/11/14,10:00:00,12,��,7.2,4.2,49.6,0,0.48,10,�쐼,12.9,10
2014/11/14,11:00:00,12,��,6.5,4.6,47,0,0.6,12,��,12.3,57
2014/11/14,12:00:00,11,���쐼,9.9,4.4,42.8,0,0.6,12,��,18.7,38
2014/11/14,13:00:00,12,��,9.2,4.7,43.2,0,0.54,12,��,19.3,9
2014/11/14,14:00:00,11,���쐼,8.4,4.1,45.6,0,0.4,11,���쐼,14.4,53
2014/11/14,15:00:00,11,���쐼,6.5,3.6,46.6,0,0.25,12,��,16.6,3
2014/11/14,16:00:00,11,���쐼,3.7,2.3,48.7,0,0.08,11,���쐼,11,27
2014/11/14,17:00:00,12,��,5.2,2.8,49.6,0,0,12,��,11.8,58
2014/11/14,18:00:00,11,���쐼,6.1,2.8,48.7,0,0,11,���쐼,10.3,48
2014/11/14,19:00:00,9,��쐼,1.8,0.8,60.3,0,0,12,��,10.4,30
2014/11/14,20:00:00,12,��,3,0.7,61.5,0,0,11,���쐼,5.9,30
2014/11/14,21:00:00,9,��쐼,1.4,-0.8,64.2,0,0,11,���쐼,5.7,12
2014/11/14,22:00:00,11,���쐼,2.9,0.1,63.9,0,0,11,���쐼,5,55
2014/11/14,23:00:00,10,�쐼,5,0.9,61.9,0,0,10,�쐼,8.1,51
2014/11/14,0:00:00,10,�쐼,4.7,0.1,75.2,0,0,10,�쐼,7.5,2
2014/11/15,1:00:00,10,�쐼,4.9,0.4,72.3,0,0,10,�쐼,9.1,0
2014/11/15,2:00:00,10,�쐼,6.5,-0.1,81.5,0,0,10,�쐼,10.7,39
2014/11/15,3:00:00,10,�쐼,7.4,-0.3,82.2,0,0,10,�쐼,12.8,17
2014/11/15,4:00:00,10,�쐼,5.4,0.3,72.4,0,0,10,�쐼,10.4,3
2014/11/15,5:00:00,10,�쐼,5.3,0.7,56.9,0,0,10,�쐼,10,43
2014/11/15,6:00:00,11,���쐼,6.2,0.6,55.8,0,0,11,���쐼,12.8,38
2014/11/15,7:00:00,11,���쐼,3.4,0.5,58.5,0,0.04,10,�쐼,7.9,40
2014/11/15,8:00:00,12,��,3.5,2.1,44.9,0,0.21,11,���쐼,5.7,33
2014/11/15,9:00:00,12,��,2.1,2.4,44.2,0,0.38,1,�k�k��,5.4,13
2014/11/15,10:00:00,13,���k��,2.7,3.3,38.7,0,0.51,12,��,7.2,59
2014/11/15,11:00:00,12,��,1,4.2,38,0,0.57,12,��,7.2,0
2014/11/15,12:00:00,14,�k��,1.9,4.6,31.7,0,0.59,15,�k�k��,6.6,44
2014/11/15,13:00:00,10,�쐼,1,5.9,34.6,0,0.51,14,�k��,5.1,21
2014/11/15,14:00:00,15,�k�k��,1.6,5.1,32.4,0,0.44,15,�k�k��,4.9,26
2014/11/15,15:00:00,16,�k,3.6,4.3,40.7,0,0.27,15,�k�k��,6.7,53
2014/11/15,16:00:00,15,�k�k��,2.3,2.4,52.3,0,0.09,16,�k,7.7,4
2014/11/15,17:00:00,15,�k�k��,1.5,1,62.4,0,0.01,5,���쓌,4.7,0
2014/11/15,18:00:00,15,�k�k��,1.7,-0.3,72.1,0,0,14,�k��,3.5,5
2014/11/15,19:00:00,12,��,1.5,-3.3,84.9,0,0,12,��,2.9,14
2014/11/15,20:00:00,12,��,2.5,-3.6,89.4,0,0,12,��,3.2,52
2014/11/15,21:00:00,13,���k��,2,-4.9,91.6,0,0,12,��,2.9,30
2014/11/15,22:00:00,12,��,2.2,-4.5,88.4,0,0,12,��,3,42
2014/11/15,23:00:00,12,��,1.6,-4.9,92.7,0,0,12,��,3,36
2014/11/15,0:00:00,13,���k��,2.7,-5.5,90.7,0,0,14,�k��,3.8,56
2014/11/16,1:00:00,12,��,2,-5.3,89.2,0,0,13,���k��,3.5,5
2014/11/16,2:00:00,12,��,2.3,-5.5,90.5,0,0,13,���k��,2.9,51
2014/11/16,3:00:00,12,��,1.5,-6.2,92.6,0,0,11,���쐼,3.8,21
2014/11/16,4:00:00,12,��,2.5,-6,91.1,0,0,12,��,3.6,42
2014/11/16,5:00:00,12,��,2.8,-6.5,91.8,0,0,12,��,3.7,48
2014/11/16,6:00:00,12,��,2.5,-7,92.2,0,0,12,��,3.5,3
2014/11/16,7:00:00,12,��,2.9,-5.4,89.5,0,0.05,11,���쐼,4.2,9
2014/11/16,8:00:00,13,���k��,1.8,-1.5,80.1,0,0.21,12,��,3.6,14
2014/11/16,9:00:00,12,��,1.6,2.5,70.2,0,0.37,12,��,2.9,16
2014/11/16,10:00:00,8,��,2.5,4.1,56.8,0,0.5,8,��,5,58
2014/11/16,11:00:00,7,��쓌,2.5,5.2,57.4,0,0.56,9,��쐼,5.1,12
2014/11/16,12:00:00,5,���쓌,2.2,6.2,53.5,0,0.57,7,��쓌,4.5,46
2014/11/16,13:00:00,4,��,2.2,7.6,53.2,0,0.53,4,��,3.6,49
2014/11/16,14:00:00,16,�k,0.8,7,47.9,0,0.33,5,���쓌,4.3,13
2014/11/16,15:00:00,7,��쓌,0.7,5.8,63,0,0.13,7,��쓌,3.4,27
2014/11/16,16:00:00,5,���쓌,1.3,4.1,65.7,0,0.06,5,���쓌,2.4,8
2014/11/16,17:00:00,1,�k�k��,0.8,3,71.4,0,0,12,��,2,34
2014/11/16,18:00:00,13,���k��,2,0.7,85,0,0,14,�k��,2.4,56
2014/11/16,19:00:00,13,���k��,1.3,1.9,73.3,0,0,14,�k��,3.6,39
2014/11/16,20:00:00,13,���k��,3.4,1.8,71,0,0,13,���k��,5.6,53
2014/11/16,21:00:00,12,��,2.5,-1,84,0,0,7,��쓌,4.8,12
2014/11/16,22:00:00,12,��,3.7,-1.9,89.1,0,0,12,��,4.5,58
2014/11/16,23:00:00,12,��,3,-3,90.9,0,0,12,��,4.6,17
2014/11/16,0:00:00,12,��,2.9,-3.3,88.1,0,0,14,�k��,4.9,36
2014/11/17,1:00:00,12,��,2.3,-3.4,90.1,0,0,11,���쐼,4.3,31
2014/11/17,2:00:00,12,��,2.5,-2.7,85,0,0,13,���k��,4.4,48
2014/11/17,3:00:00,12,��,2.6,-3.6,86.2,0,0,12,��,3.8,34
2014/11/17,4:00:00,12,��,2,-4,87.4,0,0,13,���k��,3.9,21
2014/11/17,5:00:00,13,���k��,2.5,-2.1,81,0,0,12,��,3.8,17
2014/11/17,6:00:00,12,��,1.3,-6,91.3,0,0,13,���k��,9.4,46
2014/11/17,7:00:00,11,���쐼,1.7,-6.1,93,0,0.02,12,��,2.5,45
2014/11/17,8:00:00,12,��,0.6,-2.6,83,0,0.1,14,�k��,2.6,30
2014/11/17,9:00:00,11,���쐼,1.5,1.9,61.8,0,0.34,12,��,2.5,44
2014/11/17,10:00:00,10,�É�,0.2,5.1,53.6,0,0.47,12,��,17.4,20
2014/11/17,11:00:00,6,�쓌,2.4,6.2,49.9,0,0.56,6,�쓌,3.6,54
2014/11/17,12:00:00,6,�쓌,3,5.9,49.3,0,0.57,6,�쓌,5,37
2014/11/17,13:00:00,6,�쓌,3.2,5.8,52.5,0,0.52,6,�쓌,5,15
2014/11/17,14:00:00,6,�쓌,3.1,5.8,59.2,0,0.41,6,�쓌,5.1,11
2014/11/17,15:00:00,5,���쓌,2.9,5.5,59.8,0,0.25,5,���쓌,4.5,7
2014/11/17,16:00:00,3,���k��,1.2,2.5,64.1,0,0.07,5,���쓌,3.6,0
2014/11/17,17:00:00,12,��,1.6,-1.3,87.8,0,0,13,���k��,2.1,55
2014/11/17,18:00:00,12,��,2.2,-1.9,91.5,0,0,12,��,3.1,42